Location: Germigny
(49.0644°N, 3.1591°E)
Time: 23:06:33
(UTC+00:00)

Daily predictions for brighter satellites

Satellite Brightness Start Highest point End
(mag) Time Altitude Azimuth Time Altitude Azimuth Time Altitude Azimuth
Nadezhda 1 Rocket 4.3 18:12:01 10° SSE 18:17:38 41° E 18:23:17 10° NNE
Cosmos 1461 3.0 18:15:35 10° SSW 18:19:27 48° ESE 18:23:17 10° NE
SL-16 R/B 3.8 18:15:36 10° N 18:19:37 19° NE 18:23:38 10° E
SOZ 4.3 18:18:36 10° WNW 18:20:44 74° NNE 18:23:36 10° ESE
Cosmos 2333 4.4 18:16:42 10° NNW 18:22:22 79° WSW 18:28:04 10° SSE
COSMOS 2455 3.5 18:18:56 10° NW 18:24:53 61° WSW 18:30:47 10° SSE
Cosmos 2219 Rocket 2.2 18:19:40 10° NNW 18:25:18 79° ENE 18:30:54 10° SSE
Envisat 4.3 18:23:00 10° S 18:27:52 46° W 18:32:46 10° NNW
Timation 2 Rocket 4.0 18:23:01 10° SSW 18:29:33 71° ESE 18:35:51 10° NNE
SJ-6B 4.0 18:28:15 10° ESE 18:31:42 27° ENE 18:35:09 10° N
COSMO-SKYMED 1 3.5 18:27:36 10° N 18:31:52 55° WNW 18:36:06 10° SSW
ERBS 4.0 18:29:04 10° NW 18:31:56 24° NNE 18:34:48 10° ENE
COSMOS 2428 2.8 18:27:28 10° NNW 18:33:12 90° ENE 18:38:53 10° SSE
Cosmos 1300 Rocket 3.6 18:30:08 10° S 18:34:26 83° W 18:38:47 10° N
Aureole 1 Rocket 3.4 18:29:04 10° NNW 18:34:32 80° WSW 18:38:37 10° SSE
Cosmos 2251 Rocket 4.2 18:29:14 10° NNW 18:34:33 62° WSW 18:39:49 10° S
Cosmos 1743 4.4 18:32:20 10° SW 18:35:58 39° WNW 18:39:39 10° N
NOAA 11 4.2 18:30:31 10° SSE 18:36:01 80° ENE 18:41:32 10° NNW
Cosmos 2360 Rocket 4.1 18:32:40 10° NW 18:37:39 33° WSW 18:42:36 10° SSW
H-2A R/B 3.0 18:33:57 10° ESE 18:38:05 27° ENE 18:42:18 10° N
MOS 1 4.4 18:34:48 10° SSE 18:40:24 61° ENE 18:46:01 10° N
Cosmos 2151 Rocket 3.9 18:36:34 10° SSW 18:40:58 74° WNW 18:45:23 10° N
CZ-2D R/B 3.5 18:40:45 10° S 18:44:32 71° WSW 18:48:21 10° NNW
Cosmos 1939 Rocket 2.9 18:41:49 10° S 18:45:40 81° WSW 18:49:34 10° NNW
Cosmos 1190 Rocket 4.4 18:44:13 10° NNW 18:49:19 45° ENE 18:54:15 11° SE
SAR-Lupe-2 3.9 18:48:03 10° NNE 18:51:30 43° E 18:54:55 10° S
Cosmos 1544 2.9 18:50:51 10° S 18:54:26 78° E 18:58:03 10° NNE
Cosmos 2227 Rocket 3.2 18:50:13 10° SSE 18:54:37 24° ESE 18:59:01 10° NE
Cosmos 2219 3.6 18:50:35 10° S 18:55:52 40° ESE 19:01:12 10° NE
Cosmos 2341 Rocket 4.1 18:52:10 10° N 18:58:19 55° ENE 19:04:24 10° SSE
Cosmos 1455 Rocket 4.2 18:54:50 10° SE 18:58:20 23° E 19:01:51 10° NE
ARGOS 3.7 18:53:49 10° SE 18:58:44 39° ENE 19:03:43 10° N
CZ-2C R/B 3.9 18:57:02 10° NNE 19:01:21 46° E 19:05:37 10° S
Cosmos 389 Rocket 2.6 18:58:23 10° N 19:01:44 47° ENE 19:04:30 14° SSE
Cosmos 2297 Rocket 2.9 19:00:24 10° SSE 19:05:13 30° ESE 19:10:04 10° NE
GEOS 3 Rocket 4.0 19:02:11 10° SSE 19:07:14 62° SW 19:12:20 10° NW
Meteor 1-12 Rocket 4.5 19:02:04 10° SSW 19:07:47 75° WNW 19:13:28 10° N
Ariane Rocket 3.8 19:05:08 10° S 19:10:04 53° W 19:15:04 10° NNW
NOSS 3-4 (A) 4.0 19:06:14 10° NW 19:13:11 76° SW 19:20:46 10° SSE
NOSS 3-4 (C) 4.0 19:06:20 10° NW 19:13:17 76° SW 19:20:50 10° SSE
Cosmos 1437 Rocket 3.8 19:10:18 10° N 19:13:34 26° ENE 19:14:27 24° E
Cosmos 614 Rocket 3.9 19:08:47 10° NNW 19:14:02 73° ENE 19:18:31 14° SSE
FREGAT/IRIS 2.9 19:11:59 10° S 19:14:46 59° W 19:17:33 10° NNW
Cosmos 405 Rocket 3.1 19:12:03 10° SSE 19:15:28 37° E 19:18:56 10° NNE
Cosmos 2218 Rocket 4.3 19:10:30 10° N 19:16:40 47° ENE 19:21:36 16° SE
Cosmos 2154 Rocket 4.3 19:12:02 10° NNW 19:18:12 70° W 19:24:21 10° S
EO 1 Delta rocket 4.4 19:11:36 10° SSE 19:18:20 90° N 19:23:41 10° N
Cosmos 2056 Rocket 3.8 19:14:55 10° S 19:20:04 46° ESE 19:25:13 10° NNE
Cosmos 2366 rocket 4.3 19:14:00 10° N 19:20:08 47° ENE 19:24:45 17° SE
Okean 1 Rocket 3.5 19:16:03 10° SSW 19:20:21 65° WNW 19:24:44 10° N
Cosmos 407 Rocket 3.4 19:15:27 10° NNW 19:20:38 85° ENE 19:25:02 14° SSE
Resurs 1-3 3.9 19:21:40 24° SE 19:23:55 45° ENE 19:28:07 10° N
GENESIS II 4.4 19:20:51 10° NW 19:24:57 62° NE 19:26:43 31° ESE
CZ-4C R/B 4.4 19:20:34 10° NW 19:25:18 23° N 19:30:42 10° NE
Cosmos 2333 Rocket 3.6 19:21:09 10° NW 19:26:23 38° WSW 19:31:36 10° S
Meteor 1-24 Rocket 4.2 19:21:47 10° N 19:27:15 43° ENE 19:30:19 24° SE
Meteor 1-4 Rocket 2.3 19:23:42 10° N 19:27:17 73° ENE 19:29:05 26° SSE
Meteor 2-17 Rocket 4.4 19:21:11 10° N 19:27:18 72° ENE 19:33:20 10° SSE
In-Cosmos 22 4.0 19:24:35 10° N 19:29:59 84° ENE 19:35:24 10° SSE
SL-8 Rocket 3.9 19:24:14 10° N 19:30:26 67° ENE 19:35:53 13° SSE
Resurs 01 Rocket 2.1 19:29:23 30° ESE 19:31:00 42° ENE 19:35:13 10° N
RESURS DK-1 4.0 19:28:28 10° N 19:31:36 20° NE 19:32:24 19° ENE
SL-08 RB Rocket 4.0 19:29:16 26° SE 19:31:37 51° ENE 19:36:09 10° N
Cosmos 1624 Rocket 4.0 19:26:51 10° S 19:31:55 57° ESE 19:37:02 10° NNE
CZ-2C R/B 3.4 19:29:58 25° SE 19:32:45 48° ENE 19:38:04 10° N
Cosmos 2237 Rocket 2.3 19:28:14 10° NNW 19:33:57 79° WSW 19:38:27 17° SSE
ADEOS Rocket 3.6 19:27:01 10° NNE 19:34:12 56° E 19:41:47 10° S
USA 234 4.1 19:29:06 10° ENE 19:35:17 46° N 19:41:29 10° WNW
Cosmos 1602 Rocket 4.5 19:32:34 10° N 19:36:24 29° ENE 19:36:39 29° ENE
SL-8 R/B 3.6 19:32:51 10° W 19:37:39 83° S 19:39:50 33° E
Cosmos 1674 2.9 19:36:05 10° N 19:39:42 44° ENE 19:39:57 43° E
BREEZE-M DEB (TANK) 4.3 19:26:11 10° WNW 19:39:48 58° SW 19:41:49 29° SSE
Cosmos 1805 4.0 19:42:09 34° ENE 19:42:09 34° ENE 19:45:07 10° NNE
Cosmos 1954 Rocket 3.9 19:37:12 10° NNW 19:42:27 68° ENE 19:44:49 32° SE
Cosmos 1980 4.1 19:37:42 10° NNW 19:43:18 63° WSW 19:47:47 16° S
Cosmos 1959 Rocket 4.4 19:38:02 10° N 19:44:10 70° E 19:48:25 21° SSE
Cosmos 1140 Rocket 3.4 19:39:49 10° NNW 19:45:02 89° WSW 19:47:56 27° SSE
SPOT 3 Rocket 3.9 19:41:35 10° S 19:46:41 65° WSW 19:51:49 10° NNW
Spot 2 Rocket 4.0 19:45:59 34° E 19:47:08 39° ENE 19:51:49 10° N
USA 186 3.3 19:44:30 10° SSW 19:47:37 38° W 19:50:51 10° NNW
Meteor 2-5 Rocket 3.7 19:43:50 10° N 19:49:41 82° ENE 19:53:38 22° SSE
Cosmos 1892 Rocket 4.0 19:48:45 10° NNW 19:53:09 61° W 19:56:35 16° S
ASTEX 1 4.4 19:51:19 10° N 19:56:00 47° WNW 20:00:40 10° SSW
ATLAS 2AS CENTAUR R/B 4.3 19:49:36 10° NW 19:56:12 33° WSW 20:02:22 10° S
KORONAS-FOTON 3.6 19:59:10 10° N 20:02:51 73° ENE 20:02:51 73° ENE
Cosmos 1371 Rocket 4.2 19:57:48 10° SSW 20:03:06 73° WNW 20:08:30 10° NNE
SL-16 R/B 2.1 19:59:01 10° NNW 20:04:44 76° ENE 20:06:32 45° SE
Meteor 1-22 Rocket 4.4 20:01:13 24° SSE 20:04:55 61° E 20:10:57 10° NNE
SJ-6B 4.5 20:02:29 10° SSW 20:06:14 34° W 20:09:59 10° NNW
ERBS 2.8 20:05:22 10° NW 20:08:14 59° NNW 20:08:14 59° NNW
Cosmos 1452 Rocket 4.1 20:15:46 40° ENE 20:15:46 40° ENE 20:19:33 10° NNE
Cosmos 676 Rocket 4.3 20:09:36 10° NNW 20:14:50 64° WSW 20:16:52 36° S
ISS -1.2 20:11:44 10° SW 20:12:14 13° SW 20:12:14 13° SW
SL-14 R/B 4.4 20:11:08 10° N 20:13:46 33° NNE 20:13:46 33° NNE
H-2A R/B 2.8 20:13:51 18° SSW 20:17:18 47° W 20:22:10 10° NNW
SPOT 5 4.2 20:18:57 26° NE 20:18:57 26° NE 20:22:29 10° N
CZ-2C R/B 3.4 20:13:52 10° NNE 20:17:56 36° ENE 20:17:56 36° ENE
Cosmos 2082 3.6 20:15:24 10° SSW 20:21:04 68° ESE 20:26:46 10° NNE
Cosmos 1766 3.5 20:25:16 67° WNW 20:25:16 67° WNW 20:29:01 10° N
Meteor 2-12 Rocket 4.5 20:21:17 10° N 20:27:18 56° ENE 20:27:50 54° E
Cosmos 1934 Rocket 4.4 20:25:55 10° N 20:31:34 41° ENE 20:31:34 41° ENE
MetOp-B 4.0 20:33:26 71° SSE 20:34:02 87° ENE 20:39:26 10° NNW
Cosmos 1626 3.9 20:31:26 10° N 20:33:09 25° N 20:33:09 25° N
Cosmos 1544 Rocket 4.4 20:32:52 24° SW 20:35:18 49° WNW 20:39:40 10° N
Cosmos 1455 Rocket 4.3 20:31:45 10° SW 20:35:56 40° WNW 20:40:10 10° N
Cosmos 2227 Rocket 2.5 20:32:34 10° SW 20:38:11 65° WNW 20:43:51 10° NNE
ARGOS 4.5 20:35:20 16° SSW 20:39:02 35° W 20:43:58 10° NNW
Cosmos 2219 4.4 20:34:36 10° WSW 20:40:02 42° NW 20:45:29 10° NNE
Cosmos 2084 Rocket 4.4 20:41:08 10° SW 20:44:14 42° WSW 20:44:14 42° WSW
USA 245 4.3 20:45:55 72° SE 20:46:33 83° ENE 20:52:19 10° NNW
Cosmos 1850 Rocket 3.9 20:42:01 10° NNW 20:47:06 81° W 20:47:06 81° W
Terra 3.3 20:49:57 27° NNE 20:49:57 27° NNE 20:52:42 10° N
Cosmos 2297 Rocket 2.9 20:43:29 10° SW 20:49:00 53° NW 20:54:34 10° NNE
Nadezhda 3 Rocket 3.8 20:57:56 83° SE 20:58:09 85° E 21:04:24 10° N
Meteor 1-21 Rocket 4.3 20:53:47 10° N 20:59:18 71° NE 20:59:18 71° NE
Cosmos 1943 3.7 21:01:47 10° NNW 21:06:39 52° NNE 21:06:39 52° NNE
Resurs 01 Rocket 3.5 21:06:58 23° WSW 21:07:39 24° W 21:11:17 10° NW
RESURS DK-1 4.1 21:05:55 10° NW 21:08:17 32° NW 21:08:17 32° NW
Cosmos 1605 Rocket 4.4 21:05:08 10° N 21:10:32 51° NE 21:10:32 51° NE
Cosmos 1821 Rocket 4.0 21:08:13 10° NNW 21:14:21 68° W 21:14:37 67° WSW
CZ-4C R/B 4.1 21:10:16 10° NW 21:15:58 30° NNE 21:18:32 24° NE
SPOT 1/Viking Rocket 4.1 21:17:27 56° NNW 21:17:27 56° NNW 21:21:34 10° NNW
USA 234 3.8 21:16:03 42° NE 21:17:40 50° NNE 21:23:56 10° WNW
ERS-1 Rocket 3.7 21:20:39 50° NNW 21:20:39 50° NNW 21:24:24 10° NNW
Cosmos 1535 Rocket 4.5 21:13:18 10° N 21:19:20 80° N 21:19:20 80° N
SL-16 R/B 4.1 21:44:15 10° NW 21:48:13 20° W 21:48:25 20° WSW
CZ-2C R/B 3.9 21:54:16 10° N 21:59:20 37° WNW 21:59:26 37° WNW
Terra 4.2 22:28:52 20° NW 22:28:52 20° NW 22:30:32 10° NNW
Cosmos 2263 Rocket 4.1 22:50:05 25° N 22:50:05 25° N 22:52:32 10° NNE
USA 234 4.4 23:03:24 36° WNW 23:03:24 36° WNW 23:07:01 10° NW
CZ-4C R/B 3.5 22:58:45 10° NW 23:03:41 49° NNW 23:03:41 49° NNW
